[[{"header":{"parameterUnit":"m.s-1","parameterCategory":1,"la1":30.2991,"la2":30.254,"lo1":-89.0895,"lo2":-89.0444,"dy":0.0017,"dx":0.0017,"nx":28,"ny":28,"refTime":"2025-01-16T09:00:00:Z","depth":0,"parameterNumber":2,"parameterNumberName":"U-component_of_WINDS"},"data":[0,0,0,0,0,0,0,0,0,0,0,0,0,0,0,0,0,0,0,0,0,0,0,0,0,0,0,0,0,0,0,0,0,0,0,0,0,0,0,0,0,0,0,0,0,0,0,0,0,0,0,0,0,0,0,0,0,0,-0.4296,-0.4297,0,-0.4341,-0.4342,-0.4342,-0.438,-0.4381,-0.4381,-0.4381,-0.4424,-0.4424,-0.4425,0,0,0,0,0,0,0,0,0,0,0,0,0,-0.4241,-0.4241,-0.4296,-0.4297,-0.4298,-0.4341,-0.4342,-0.4342,-0.438,-0.4381,-0.4381,-0.4382,-0.4423,-0.4424,-0.4425,0,0,0,0,0,0,0,0,0,0,0,0,0,-0.4273,-0.4242,-0.4296,-0.4322,-0.4324,-0.4341,-0.4342,-0.4343,-0.438,-0.4381,-0.4381,-0.4382,-0.4423,-0.4424,-0.4425,-0.4419,0,0,-0.4429,-0.4429,0,0,0,0,0,0,0,0,-0.4271,-0.4275,-0.4317,-0.432,-0.4323,-0.4356,-0.4338,-0.4368,-0.438,-0.4359,-0.4381,-0.4382,-0.44,-0.4403,-0.441,-0.4421,-0.4423,-0.4429,-0.4429,-0.443,-0.443,0,0,0,0,0,0,0,-0.4269,-0.4273,-0.4314,-0.4318,-0.4321,-0.433,-0.4335,-0.4344,-0.4375,-0.4361,-0.4364,-0.4369,-0.4402,-0.4409,-0.4412,-0.4424,-0.4429,-0.443,-0.443,-0.4431,-0.4432,-0.4431,0,0,0,0,0,0,-0.4263,-0.4271,-0.4313,-0.4315,-0.4298,-0.433,-0.4336,-0.4345,-0.4375,-0.4381,-0.4368,-0.437,-0.4407,-0.441,-0.4413,-0.4408,-0.443,-0.4431,-0.4431,-0.4433,-0.4432,-0.4431,0,0,0,0,0,0,-0.4262,-0.4266,-0.4311,-0.4294,-0.43,-0.4331,-0.434,-0.4345,-0.4352,-0.4381,-0.4386,-0.437,-0.4408,-0.4412,-0.4418,-0.441,-0.4431,-0.4432,-0.4433,-0.4432,-0.4431,-0.4398,0,0,0,0,0,0,-0.426,-0.4266,-0.4264,-0.4294,-0.4301,-0.4315,-0.4339,-0.4346,-0.4355,-0.4358,-0.4384,-0.4389,-0.4408,-0.4416,-0.4419,-0.4412,-0.4433,-0.4434,-0.4433,-0.4432,-0.44,-0.4396,-0.4393,0,0,0,0,0,-0.4258,-0.4252,-0.4264,-0.4269,-0.43,-0.4315,-0.4319,-0.4343,-0.4354,-0.4352,-0.4371,-0.4388,-0.4411,-0.4416,-0.442,-0.4413,-0.4435,-0.4433,-0.4432,-0.4402,-0.4397,-0.4393,0,0,0,0,0,0,-0.422,-0.4257,-0.427,-0.4274,-0.4291,-0.4321,-0.432,-0.4337,-0.435,-0.4353,-0.4381,-0.4386,-0.4389,-0.4402,-0.4407,-0.4409,-0.4425,-0.4424,-0.4401,-0.4396,-0.4393,-0.439,-0.4434,0,0,0,0,0,-0.4212,-0.4222,-0.4253,-0.4254,-0.4262,-0.429,-0.4297,-0.4314,-0.4332,-0.4339,-0.4358,-0.4374,-0.4385,-0.4391,-0.4403,-0.4402,-0.4408,-0.4399,-0.4396,-0.4393,-0.4392,-0.4392,-0.4388,-0.4426,-0.4427,-0.4427,0,0,-0.4196,-0.4217,-0.4222,-0.4247,-0.4262,-0.4271,-0.4295,-0.4303,-0.431,-0.434,-0.4347,-0.4362,-0.4381,-0.4384,-0.4386,-0.4395,-0.4382,-0.4391,-0.4388,-0.4389,-0.439,-0.4387,-0.4383,-0.4426,-0.4426,-0.4426,0,0,-0.4171,-0.4188,-0.4191,-0.4206,-0.423,-0.4248,-0.4248,-0.4276,-0.4287,-0.4295,-0.4318,-0.4326,-0.4344,-0.4357,-0.4366,-0.4347,-0.4363,-0.435,-0.4331,-0.4331,-0.4328,-0.4325,-0.4318,-0.4316,-0.4349,-0.4349,-0.4348,0,-0.4148,-0.4163,-0.419,-0.4197,-0.4207,-0.4236,-0.4239,-0.4251,-0.4277,-0.4283,-0.4292,-0.4316,-0.4331,-0.4338,-0.4333,-0.4339,-0.434,-0.4347,-0.4327,-0.4324,-0.4322,-0.4316,-0.4313,-0.4347,-0.4347,-0.4347,-0.4347,0,-0.4133,-0.4143,-0.4142,-0.4168,-0.4178,-0.4182,-0.4209,-0.4216,-0.4232,-0.4249,-0.4256,-0.4276,-0.4292,-0.4295,-0.431,-0.4303,-0.4308,-0.4322,-0.4338,-0.4316,-0.4311,-0.4309,-0.4344,-0.4345,-0.4345,-0.4346,0,0,-0.4085,-0.4126,-0.4125,-0.4137,-0.4165,-0.4173,-0.4178,-0.4195,-0.4201,-0.4217,-0.4222,-0.4237,-0.425,-0.426,-0.4277,-0.4277,-0.4261,-0.4291,-0.4292,-0.4285,-0.4254,-0.4244,-0.424,-0.4272,-0.4271,-0.4271,-0.4252,0,-0.4065,-0.4078,-0.4102,-0.4107,-0.4117,-0.4145,-0.4149,-0.4166,-0.4183,-0.4192,-0.421,-0.422,-0.4237,-0.4243,-0.4244,-0.4262,-0.4255,-0.4264,-0.4276,-0.4276,-0.427,-0.4237,-0.4226,-0.4208,-0.425,-0.425,-0.425,0,-0.4043,-0.4059,-0.4065,-0.4093,-0.4098,-0.4102,-0.412,-0.4129,-0.4148,-0.416,-0.4172,-0.4191,-0.4197,-0.4213,-0.4222,-0.4228,-0.4234,-0.4243,-0.4243,-0.4245,-0.4261,-0.4238,-0.4202,-0.4199,-0.4247,-0.4247,-0.4247,0,-0.4007,-0.403,-0.4037,-0.4046,-0.4079,-0.4081,-0.4095,-0.4115,-0.4124,-0.4139,-0.4145,-0.416,-0.4168,-0.4179,-0.4201,-0.421,-0.4207,-0.4225,-0.4217,-0.4216,-0.4215,-0.4214,-0.4179,-0.4219,-0.4219,-0.4219,-0.4219,0,-0.3982,-0.3984,-0.4022,-0.4026,-0.4029,-0.4057,-0.406,-0.4075,-0.4093,-0.41,-0.4125,-0.4131,-0.416,-0.4169,-0.4186,-0.4191,-0.4194,-0.4203,-0.4208,-0.4201,-0.42,-0.4205,-0.4207,-0.4218,-0.4218,-0.4218,-0.4218,0,-0.3943,-0.3968,-0.3977,-0.4008,-0.4015,-0.4016,-0.4042,-0.4047,-0.4064,-0.4073,-0.4076,-0.4104,-0.4116,-0.4139,-0.4157,-0.4169,-0.4169,-0.4178,-0.4163,-0.4166,-0.4157,-0.4157,-0.4124,-0.412,-0.4162,-0.4161,-0.4161,0,-0.3925,-0.3928,-0.3959,-0.3966,-0.3979,-0.399,-0.3999,-0.4026,-0.4035,-0.4058,-0.4059,-0.4073,-0.4086,-0.4103,-0.4124,-0.4138,-0.4147,-0.4134,-0.4149,-0.4142,-0.4146,-0.4146,-0.4146,-0.413,-0.413,-0.4129,-0.4129,0,-0.389,-0.3903,-0.3916,-0.3934,-0.3945,-0.396,-0.3976,-0.398,-0.401,-0.4018,-0.4032,-0.4041,-0.406,-0.4074,-0.4091,-0.4103,-0.4121,-0.4124,-0.4123,-0.4116,-0.4108,-0.4112,-0.4154,-0.4125,-0.4125,-0.4125,-0.4126,-0.4126,-0.3861,-0.3865,-0.3888,-0.3902,-0.3917,-0.3932,-0.3938,-0.3957,-0.3969,-0.3987,-0.4002,-0.4014,-0.4033,-0.4058,-0.407,-0.4078,-0.4087,-0.4085,-0.4085,-0.4084,-0.4081,-0.4106,-0.4082,-0.4082,-0.4082,-0.4082,-0.4082,0,-0.3828,-0.3845,-0.3857,-0.388,-0.389,-0.3907,-0.3926,-0.3933,-0.3944,-0.3961,-0.3973,-0.3988,-0.4001,-0.4024,-0.4038,-0.4041,-0.405,-0.4044,-0.4044,-0.4047,-0.4073,-0.4072,-0.4037,-0.4037,-0.4037,-0.4037,-0.4037,-0.4037,-0.3813,-0.382,-0.3835,-0.3851,-0.3866,-0.3879,-0.3888,-0.3902,-0.3916,-0.3932,-0.3943,-0.3958,-0.3977,-0.3993,-0.4006,-0.4012,-0.4016,-0.4008,-0.4017,-0.4041,-0.4045,-0.4049,-0.4049,-0.4009,-0.4009,-0.399,-0.399,-0.399]},{"header":{"parameterUnit":"m.s-1","parameterCategory":1,"la1":30.2991,"la2":30.254,"lo1":-89.0895,"lo2":-89.0444,"dy":0.0017,"dx":0.0017,"nx":28,"ny":28,"refTime":"2025-01-16T09:00:00:Z","depth":0,"parameterNumber":3,"parameterNumberName":"V-component_of_WINDS"},"data":[0,0,0,0,0,0,0,0,0,0,0,0,0,0,0,0,0,0,0,0,0,0,0,0,0,0,0,0,0,0,0,0,0,0,0,0,0,0,0,0,0,0,0,0,0,0,0,0,0,0,0,0,0,0,0,0,0,0,8.6934,8.6935,0,8.6981,8.6981,8.6982,8.6923,8.6921,8.6918,8.6916,8.6959,8.6962,8.6965,0,0,0,0,0,0,0,0,0,0,0,0,0,8.6793,8.6796,8.6934,8.6935,8.6935,8.698,8.6981,8.6982,8.6923,8.6921,8.6918,8.6915,8.6958,8.6962,8.6965,0,0,0,0,0,0,0,0,0,0,0,0,0,8.6848,8.6797,8.6934,8.6912,8.691,8.698,8.6981,8.6982,8.6924,8.692,8.6917,8.6914,8.6957,8.6961,8.6966,8.7059,0,0,8.698,8.6982,0,0,0,0,0,0,0,0,8.6845,8.6853,8.6914,8.6913,8.6912,8.6943,8.6947,8.7007,8.6924,8.6918,8.6916,8.6913,8.6956,8.696,8.6976,8.7061,8.7062,8.698,8.6983,8.6985,8.6987,0,0,0,0,0,0,0,8.6841,8.6851,8.6952,8.6915,8.6914,8.6899,8.6903,8.6958,8.6954,8.6919,8.6914,8.6921,8.6954,8.6971,8.6976,8.7063,8.698,8.6985,8.6987,8.6989,8.7231,8.7234,0,0,0,0,0,0,8.6841,8.6848,8.6951,8.6954,8.687,8.6904,8.6909,8.6936,8.6954,8.6953,8.6924,8.6918,8.6965,8.6971,8.6978,8.7091,8.6985,8.699,8.6992,8.7227,8.7232,8.7236,0,0,0,0,0,0,8.6838,8.685,8.6949,8.69,8.6911,8.691,8.6941,8.6938,8.6956,8.6958,8.6956,8.6942,8.6963,8.6971,8.704,8.7091,8.6992,8.6996,8.7223,8.7229,8.7234,8.7315,0,0,0,0,0,0,8.6834,8.685,8.6885,8.6901,8.6914,8.7012,8.6944,8.6942,8.6964,8.6958,8.6974,8.6974,8.6961,8.7034,8.7045,8.7096,8.7,8.7218,8.7226,8.7232,8.7308,8.7323,8.7336,0,0,0,0,0,8.6829,8.6904,8.6887,8.69,8.6959,8.7014,8.7022,8.7007,8.6969,8.7004,8.7006,8.6973,8.7084,8.7041,8.7053,8.7106,8.7215,8.7224,8.7231,8.7302,8.732,8.7335,0,0,0,0,0,0,8.689,8.6905,8.6887,8.6969,8.6992,8.7004,8.7049,8.7026,8.7057,8.7049,8.7028,8.7032,8.7107,8.7113,8.7066,8.72,8.7143,8.7154,8.7193,8.721,8.7223,8.722,8.7004,0,0,0,0,0,8.6914,8.6959,8.6969,8.7041,8.7054,8.705,8.7073,8.7061,8.7082,8.709,8.7097,8.7118,8.7158,8.7184,8.722,8.7309,8.7313,8.7352,8.7365,8.7377,8.7387,8.7438,8.7456,8.7262,8.7262,8.7262,0,0,8.6962,8.6976,8.7005,8.7054,8.707,8.7117,8.7058,8.7109,8.7144,8.7097,8.7165,8.7171,8.7193,8.7274,8.7309,8.7281,8.7441,8.7387,8.7396,8.74,8.7448,8.7466,8.7483,8.7268,8.7267,8.7266,0,0,8.7074,8.7089,8.7152,8.7171,8.7197,8.7194,8.721,8.7228,8.7231,8.7299,8.7266,8.7307,8.7375,8.7393,8.7411,8.7537,8.7509,8.7549,8.7621,8.7671,8.7686,8.77,8.7747,8.7764,8.7559,8.7559,8.7559,0,8.713,8.7202,8.7187,8.7243,8.7267,8.723,8.7295,8.7312,8.7348,8.7365,8.7334,8.7422,8.7433,8.752,8.7551,8.7566,8.7584,8.7547,8.7686,8.7699,8.7711,8.7756,8.7774,8.7564,8.7564,8.7563,8.7563,0,8.7271,8.7321,8.7369,8.7409,8.7438,8.7497,8.7492,8.7523,8.7509,8.7511,8.7582,8.7596,8.7636,8.7655,8.764,8.7741,8.7723,8.7689,8.7632,8.7735,8.7777,8.7794,8.7571,8.7569,8.7568,8.7567,0,0,8.7419,8.7455,8.7473,8.7493,8.7521,8.7559,8.7618,8.7661,8.7689,8.7716,8.7766,8.7827,8.7798,8.7818,8.7805,8.7849,8.7952,8.781,8.781,8.7838,8.8067,8.8094,8.8114,8.7934,8.7937,8.7939,8.8066,0,8.7534,8.764,8.7631,8.773,8.7778,8.7747,8.7799,8.7822,8.7826,8.7867,8.787,8.7915,8.7871,8.7884,8.7926,8.7931,8.7998,8.7921,8.7981,8.7983,8.7977,8.8135,8.8163,8.8281,8.8082,8.8085,8.8087,0,8.7681,8.7718,8.7824,8.785,8.7869,8.7917,8.7957,8.7997,8.8023,8.8023,8.805,8.8031,8.8091,8.8034,8.8118,8.8066,8.809,8.8096,8.81,8.8106,8.8042,8.8147,8.8319,8.8337,8.8112,8.811,8.8108,0,8.7783,8.7858,8.7933,8.795,8.7981,8.8016,8.803,8.8054,8.8081,8.8116,8.8135,8.8175,8.8198,8.823,8.8223,8.8181,8.831,8.825,8.8312,8.8313,8.834,8.8339,8.852,8.8354,8.8354,8.8353,8.8353,0,8.7913,8.7979,8.7979,8.8025,8.8099,8.8089,8.8162,8.8172,8.8195,8.8242,8.8216,8.826,8.8248,8.8292,8.8286,8.8359,8.8368,8.837,8.8368,8.8374,8.8374,8.8389,8.8381,8.8358,8.8357,8.8356,8.8355,0,8.8038,8.8041,8.812,8.8145,8.8153,8.8207,8.8228,8.8272,8.8275,8.8336,8.8349,8.8354,8.8405,8.8402,8.8458,8.8455,8.8545,8.8532,8.8537,8.8535,8.8597,8.8592,8.8796,8.8823,8.8638,8.864,8.8641,0,8.8121,8.8172,8.8205,8.8236,8.8254,8.8304,8.8334,8.8326,8.8358,8.8396,8.8435,8.8485,8.8524,8.8608,8.8616,8.866,8.8649,8.8717,8.8655,8.866,8.8653,8.865,8.8657,8.873,8.8732,8.8733,8.8735,0,8.8269,8.8269,8.8314,8.8362,8.8399,8.8435,8.8467,8.8494,8.8491,8.8528,8.8582,8.8613,8.8674,8.8724,8.8767,8.8781,8.8758,8.8755,8.8772,8.8778,8.878,8.8782,8.8572,8.875,8.8748,8.8747,8.8746,8.8746,8.8376,8.8422,8.8454,8.8507,8.8532,8.8565,8.8608,8.862,8.8665,8.8716,8.8709,8.877,8.8799,8.8855,8.8874,8.8921,8.8897,8.892,8.8927,8.8933,8.8942,8.8772,8.8929,8.8928,8.8928,8.8927,8.8927,0,8.8525,8.8546,8.8594,8.8644,8.8686,8.8664,8.87,8.8736,8.8792,8.8822,8.8863,8.8927,8.8977,8.8991,8.9039,8.9075,8.9066,8.9088,8.9085,8.909,8.896,8.8941,8.9095,8.9095,8.9095,8.9094,8.9094,8.9094,8.8607,8.8686,8.8691,8.8782,8.8801,8.8863,8.8887,8.8917,8.8942,8.9016,8.9058,8.9068,8.9093,8.9143,8.9189,8.9191,8.9211,8.9238,8.9237,8.9115,8.9098,8.9082,8.9065,8.9242,8.9242,8.9363,8.9364,8.9365]}]]